Regional Weather Roundup
Issued by NWS Sterling, VA

Home | Current Version | Previous Version | Graphics & Text | Print | Product List | Glossary On
Versions: 1 2 3 4 5 6 7 8 9 10 11 12 13 14 15 16 17 18 19 20 21 22 23 24 25 26 27 28 29 30 31 32 33 34 35 36 37 38 39 40 41 42 43 44 45 46 47 48 49 50
000
ASUS41 KLWX 040810
RWRLWX

REGIONAL WEATHER ROUNDUP
NATIONAL WEATHER SERVICE BALTIMORE MD/WASHINGTON DC
400 AM EDT FRI SEP 04 2015

Note: "FAIR" indicates few or no clouds below 12,000 feet
with no significant weather and/or obstructions to visibility.
 TC=TEMPERATURE CELSIUS

 * =Non NWS site. Station does not report precipitation (e.g. rain,
    snow, etc.), thunder, or fog.

DCZ001-MDZ009-015-VAZ040>042-051-053>054-040900-
WASHINGTON METRO

CITY           SKY/WX    TMP DP  RH WIND       PRES   REMARKS
WASHINGTON NAT CLEAR     77  69  76 N6        29.92R
DULLES         PTCLDY    74  67  78 CALM      29.93R
ANDREWS AFB    CLEAR     72  69  89 NW3       29.91R
FT BELVOIR     PTCLDY    70  68  94 CALM      29.91R
QUANTICO       PTCLDY    74  68  81 NW5       29.92R
COLLEGE PARK*  CLEAR     72  70  94 CALM      29.90S
LEESBURG*      PTCLDY    73  72  94 W10       29.94S
MANASSAS*      PTCLDY    70  70 100 CALM      29.93R
GAITHERSBURG*  CLEAR     72  66  83 CALM      29.97S

$$

MDZ006>007-011-014-040900-
BALTIMORE METRO

CITY           SKY/WX    TMP DP  RH WIND       PRES   REMARKS
BWI AIRPORT    MOCLDY    74  69  85 CALM      29.90S
MD SCIENCE CTR   N/A     81  67  62 MISG      29.91R
ANNAPOLIS      PTCLDY    77  73  87 NW3       29.89R
FORT MEADE*    PTCLDY    68  64  88 CALM      29.93S

$$

MDZ012-015-019>023-040900-
MARYLAND EASTERN SHORE

CITY           SKY/WX    TMP DP  RH WIND       PRES   REMARKS
OCEAN CITY     CLEAR     71  69  93 NW3       29.89R
SALISBURY      PTCLDY    72  70  93 CALM      29.89R FOG
BAY BRIDGE AP*   N/A     77  73  88 NW5       29.90R
CAMBRIDGE*     PTCLDY    72  68  88 CALM      29.89R

$$

MDZ017>025-040900-
SOUTHERN MARYLAND

CITY           SKY/WX    TMP DP  RH WIND       PRES   REMARKS
PATUXENT RIVER CLEAR     70  68  93 W5        29.89S
ST INIGOES     CLEAR     71  70  96 CALM      29.89R FOG
LEONARDTOWN*   NOT AVBL

$$

MDZ003>005-040900-
NORTH CENTRAL MARYLAND

CITY           SKY/WX    TMP DP  RH WIND       PRES   REMARKS
FREDERICK*     PTCLDY    68  68 100 CALM      29.96R FOG
HAGERSTOWN APT CLEAR     73  67  81 CALM      29.96R
WESTMINSTER*   CLEAR     73  68  83 CALM      29.95S

$$

MDZ501>502-040900-
WESTERN MARYLAND

CITY           SKY/WX    TMP DP  RH WIND       PRES   REMARKS
OAKLAND*       CLEAR     64  63  94 NW3       30.09S
CUMBERLAND*    CLOUDY    68  68 100 CALM      30.02R VSB 1/4

$$

VAZ025>031-040900-
SHENANDOAH VALLEY

CITY           SKY/WX    TMP DP  RH WIND       PRES   REMARKS
WINCHESTER*    PTCLDY    70  68  94 CALM      29.97R FOG
FRONT ROYAL*   FAIR      68  68 100 CALM      29.96R
LURAY*         FOG       64  64 100 CALM      29.98R VSB 1/2
NEW MARKET*    FAIR      65  65  99 CALM      29.98R
STAUNTON*      CLEAR     66  65  95 CALM      30.02R FOG
WAYNESBORO*    FAIR      67  65  93 CALM      30.01R

$$

WVZ021-048>050-054>055-040900-
EASTERN WEST VIRGINIA PANHANDLE

CITY           SKY/WX    TMP DP  RH WIND       PRES   REMARKS
MARTINSBURG    PTCLDY    66  65  96 CALM      29.96R FOG
PETERSBURG*    FOG       65  65 100 CALM      30.01R VSB 1/4

$$

VAZ036>039-050-040900-
CENTRAL FOOTHILLS

CITY           SKY/WX    TMP DP  RH WIND       PRES   REMARKS
CHARLOTTESVILL CLEAR     70  67  90 CALM      29.94R
CULPEPER*      CLEAR     68  68  99 CALM      29.93S FOG
ORANGE*        CLEAR     70  68  94 CALM      29.95R
GORDONSVILLE*  FAIR      70  69  97 CALM      29.93R
WARRENTON*     FAIR      68  67  98 CALM      29.92S FOG

$$

VAZ055>057-040900-
NORTH AND CENTRAL PIEDMONT

CITY           SKY/WX    TMP DP  RH WIND       PRES   REMARKS
FREDERICKSBRG* PTCLDY    72  72 100 CALM      29.91R
STAFFORD*      PTCLDY    68  66  94 NW3       29.96R FOG

$$

NCZ024-NYZ072-PAZ021-071-VAZ022-071-040900-
OTHER REGIONAL OBSERVATIONS

CITY           SKY/WX    TMP DP  RH WIND       PRES   REMARKS
NEW YORK CITY  CLEAR     78  65  63 N3        29.95R
PHILADELPHIA   MOCLDY    79  69  71 NW3       29.91R
PITTSBURGH     CLOUDY    70  66  87 NW6       30.01S
ROANOKE        CLEAR     70  66  87 CALM      30.01R
RICHMOND       CLEAR     76  69  79 N3        29.91R
RALEIGH        PTCLDY    72  68  87 CALM      29.94R

$$

ANZ530>537-040900-
MARINE OBSERVATIONS

STATION/POSITION TIME  TEMP    WIND        PRES
                       AIR SEA DIR/SP/G
                 (UTC) (F)     (DEG/KT/KT) (MB)
THOMAS PT LIGHT  NOT AVBL
BALT KEY BRIDGE  0700   81     340/  7/  8 1012.3R
COVE POINT       0700   78     320/  4/  4 1012.7R
LEWISETTA        0700   77 82  290/  2/  3 1011.7R
SOLOMONS ISLAND  0700      82                N/A
PINEY POINT      0705          350/  4/  4   N/A

$$



USA.gov is the U.S. government's official web portal to all federal, state and local government web resources and services.